sat.trackr.live / text

‹ back to catalog

STARLINK-5146

NORAD 54073 · 2022-136Y

PAYLOAD ACTIVE UNKNOWN

§ Identity

Operator
Country
US
Launch date
2022-10-20
Launch site
AFETR
Launch vehicle
Mass (kg)
RCS (m²)

Purposes: comms

External: N2YO · Heavens-Above · Gunter

§ Orbital elements

Epoch: 2026-09-20T03:34:53.805504Z

Period
93.85 min
Inclination
53.1615°
Eccentricity
0.0001232
Mean motion
15.34376613 rev/d
Perigee alt
461.9 km
Apogee alt
463.6 km
Semi-major
6,840.9 km
B*
5.3273e-5
RAAN
179.7075°
Arg perigee
96.4382°
Mean anomaly
263.6761°
Rev number
21,635

§ Raw data

STARLINK-51461 54073U 22136Y   26263.14923386  .00001423  00000+0  53273-4 0  99912 54073  53.1615 179.7075 0001232  96.4382 263.6761 15.34376613216355

JSON: /api/v1/satellites/54073 · /tle

For live sub-satellite position, see the globe view (requires WebGL).

§ Visibility from observer

Set your observer location to see the next 7 days of passes ≥ 10°. The values pass through the URL so the page stays shareable.

No JS? Fill the form by hand. The geolocation button needs JavaScript.